Home   Weather   Riyadh   Past weeks
Flag for Saudi Arabia

Past Weather in Riyadh, Saudi Arabia — Yesterday and Last 2 Weeks

Now
97 °F

Scattered clouds.


Feels Like: 93 °F
Forecast: 98 / 75 °F
Wind: 8 mph from North

Location: King Khaled International Airport

Current Time: May 21, 2019 at 12:21:43 pm

Latest Report: May 21, 2019 at 12:00 pm


Visibility: N/A

Pressure: 29.98 "Hg (28.09 "Hg at 590m altitude)

Humidity: 16%

Dew Point: 43 °F

Location of RiyadhLocation

Past Weather in Riyadh — Graph

°F

Riyadh Temperature Yesterday

Maximum temperature yesterday: 102 °F (at 3:00 pm)
Minimum temperature yesterday: 81 °F (at 6:00 am)
Average temperature yesterday: 88 °F

High & Low Weather Summary for the Past Weeks

 TemperatureHumidityPressure
High104 °F (May 7, 3:00 pm)61% (May 12, 9:00 pm)30.09 "Hg (May 12, 9:00 pm)
Low70 °F (May 13, 5:00 am)7% (May 15, 2:00 pm)29.71 "Hg (May 9, 3:00 pm)
Average88 °F23%29.89 "Hg
* Reported May 6 11:00 am — May 21 11:00 am, Riyadh. Weather by CustomWeather, © 2019

Note: Actual official high and low records may vary slightly from our data, if they occured in-between our weather recording intervals... More about our weather records

Advertising

Riyadh Weather History for the Previous 24 Hours

Scroll right to see more
 ConditionsComfort  
Time TempWeatherWind HumidityBarometerVisibility
11:00 am
Tue, May 21
93 °FClear.7 mph19%29.98 "Hg5 mi
10:00 am93 °FClear.7 mph19%29.98 "Hg5 mi
9:00 am88 °FClear.7 mph27%29.98 "Hg5 mi
8:00 am84 °FClear.9 mph33%29.98 "Hg5 mi
7:00 am81 °FClear.6 mph39%29.95 "Hg5 mi
6:00 am77 °FClear.5 mph47%29.95 "Hg5 mi
5:00 am77 °FClear.3 mph44%29.92 "Hg4 mi
4:00 am79 °FClear.10 mph42%29.92 "Hg4 mi
3:00 am79 °FClear.8 mph39%29.92 "Hg4 mi
2:00 am81 °FClear.8 mph37%29.89 "Hg4 mi
1:00 am79 °FClear.7 mph42%29.89 "Hg4 mi
12:00 am82 °FClear.9 mph30%29.89 "Hg4 mi
11:00 pm
Mon, May 20
84 °FPartly cloudy.6 mph25%29.92 "Hg4 mi
10:00 pm82 °FPartly cloudy.8 mph32%29.95 "Hg4 mi
9:00 pm84 °FPassing clouds.6 mph29%29.95 "Hg4 mi
8:00 pm82 °FPartly cloudy.14 mph30%29.95 "Hg4 mi
7:00 pm82 °FThunderstorms. Partly cloudy.21 mph25%29.89 "Hg2 mi
6:00 pm91 °FThunderstorms. Broken clouds.13 mph17%29.83 "Hg4 mi
5:00 pm91 °FThunderstorms. Broken clouds.10 mph16%29.83 "Hg4 mi
4:00 pm93 °FThunderstorms. Broken clouds.21 mph20%29.83 "Hg4 mi
3:00 pm102 °FPartly sunny.5 mph12%29.83 "HgN/A
2:00 pm99 °FSunny.7 mph14%29.83 "Hg10 mi
1:00 pm99 °FSunny.3 mph15%29.89 "Hg10 mi
12:00 pm95 °FScattered clouds.6 mph20%29.89 "HgN/A
Weather by CustomWeather, © 2019

See weather overview